| time (UTC) | temp F | wind direction | speed knots | gust knots | rain 1hr in | rain 24hr in | rain mn in | humidity % | barometer mb |
| 20260502195029 | 56 | 288 | 0.0 | 2.6 | 0.00 | 0.21 | 0.21 | 58 | 1010.7 |
| 20260502194544 | 56 | 0 | 0.0 | 4.3 | 0.00 | 0.21 | 0.21 | 59 | 1010.7 |
| 20260502194029 | 56 | 0 | 0.0 | 4.3 | 0.00 | 0.21 | 0.21 | 56 | 1010.7 |
| 20260502193530 | 56 | 334 | 1.7 | 4.3 | 0.00 | 0.21 | 0.21 | 55 | 1010.7 |
| 20260502193039 | 56 | 300 | 1.7 | 4.3 | 0.00 | 0.21 | 0.21 | 57 | 1010.9 |
| 20260502192529 | 56 | 147 | 0.9 | 5.2 | 0.00 | 0.21 | 0.21 | 58 | 1010.8 |
| 20260502192029 | 56 | 252 | 1.7 | 5.2 | 0.00 | 0.21 | 0.21 | 61 | 1010.7 |
| 20260502191543 | 56 | 278 | 1.7 | 5.2 | 0.00 | 0.21 | 0.21 | 61 | 1010.8 |
| 20260502191030 | 55 | 14 | 1.7 | 3.5 | 0.00 | 0.21 | 0.21 | 62 | 1010.8 |
| 20260502190530 | 55 | 292 | 0.9 | 3.5 | 0.00 | 0.21 | 0.21 | 63 | 1010.9 |
| 20260502190042 | 55 | 261 | 0.9 | 3.5 | 0.00 | 0.21 | 0.21 | 64 | 1011.0 |
| 20260502185529 | 55 | 335 | 0.9 | 4.3 | 0.00 | 0.21 | 0.21 | 63 | 1011.0 |
| 20260502185029 | 54 | 306 | 0.9 | 4.3 | 0.00 | 0.21 | 0.21 | 63 | 1011.1 |
| 20260502184538 | 54 | 356 | 0.0 | 4.3 | 0.00 | 0.21 | 0.21 | 66 | 1011.0 |
| 20260502184029 | 54 | 330 | 1.7 | 4.3 | 0.00 | 0.21 | 0.21 | 66 | 1011.0 |
| 20260502183530 | 54 | 0 | 1.7 | 4.3 | 0.00 | 0.21 | 0.21 | 64 | 1011.1 |
| 20260502183044 | 54 | 357 | 1.7 | 6.1 | 0.00 | 0.21 | 0.21 | 65 | 1011.2 |
| 20260502182530 | 54 | 309 | 2.6 | 6.1 | 0.00 | 0.21 | 0.21 | 66 | 1011.1 |
| 20260502182029 | 54 | 326 | 2.6 | 6.1 | 0.00 | 0.21 | 0.21 | 67 | 1011.1 |
| 20260502181546 | 54 | 300 | 0.0 | 1.7 | 0.00 | 0.21 | 0.21 | 68 | 1011.2 |
| 20260502181029 | 54 | 271 | 0.9 | 4.3 | 0.00 | 0.21 | 0.21 | 66 | 1011.1 |
| 20260502180530 | 54 | 317 | 0.9 | 4.3 | 0.00 | 0.21 | 0.21 | 68 | 1011.1 |
| 20260502164030 | 54 | 304 | 0.9 | 4.3 | 0.00 | 0.21 | 0.21 | 73 | 1011.3 |
| 20260502163530 | 54 | 334 | 0.9 | 6.1 | 0.00 | 0.21 | 0.21 | 72 | 1011.3 |
| 20260502163048 | 54 | 102 | 0.9 | 9.6 | 0.00 | 0.21 | 0.21 | 73 | 1011.4 |
| 20260502162530 | 54 | 18 | 4.3 | 9.6 | 0.00 | 0.21 | 0.21 | 72 | 1011.4 |
| 20260502162029 | 54 | 302 | 1.7 | 5.2 | 0.00 | 0.21 | 0.21 | 73 | 1011.5 |
| 20260502161536 | 53 | 8 | 1.7 | 5.2 | 0.00 | 0.21 | 0.21 | 74 | 1011.5 |
| 20260502161029 | 53 | 333 | 0.0 | 4.3 | 0.00 | 0.21 | 0.21 | 75 | 1011.6 |
| 20260502160531 | 53 | 331 | 1.7 | 3.5 | 0.00 | 0.21 | 0.21 | 75 | 1011.5 |
| 20260502152030 | 50 | 0 | 0.0 | 2.6 | 0.00 | 0.21 | 0.21 | 79 | 1011.8 |
| 20260502151553 | 50 | 0 | 0.9 | 2.6 | 0.00 | 0.21 | 0.21 | 78 | 1011.8 |
| 20260502151029 | 50 | 252 | 0.0 | 3.5 | 0.00 | 0.21 | 0.21 | 79 | 1011.9 |
| 20260502150529 | 50 | 293 | 1.7 | 5.2 | 0.00 | 0.21 | 0.21 | 77 | 1011.9 |
| 20260502130532 | 50 | 139 | 0.0 | 2.6 | 0.00 | 0.21 | 0.21 | 93 | 1012.2 |
| 20260502123529 | 47 | 0 | 0.0 | 1.7 | 0.01 | 0.21 | 0.21 | 95 | 1012.3 |
| 20260502123049 | 47 | 333 | 0.0 | 1.7 | 0.01 | 0.21 | 0.21 | 95 | 1012.4 |
| 20260502122534 | 47 | 299 | 0.0 | 0.9 | 0.02 | 0.21 | 0.21 | 95 | 1012.3 |
| 20260502122030 | 47 | 0 | 0.0 | 0.9 | 0.03 | 0.21 | 0.21 | 96 | 1012.3 |
| 20260502121541 | 46 | 0 | 0.0 | 0.0 | 0.03 | 0.21 | 0.21 | 96 | 1012.4 |
| 20260502121028 | 46 | 0 | 0.0 | 0.0 | 0.03 | 0.21 | 0.21 | 96 | 1012.4 |
| 20260502120533 | 46 | 0 | 0.0 | 0.0 | 0.03 | 0.21 | 0.21 | 96 | 1012.5 |
| 20260502115529 | 46 | 0 | 0.0 | 0.0 | 0.03 | 0.21 | 0.21 | 96 | 1012.4 |
| 20260502115032 | 46 | 0 | 0.0 | 0.0 | 0.03 | 0.21 | 0.21 | 96 | 1012.3 |
| 20260502114549 | 45 | 0 | 0.0 | 0.0 | 0.03 | 0.21 | 0.21 | 96 | 1012.2 |
| 20260502114030 | 45 | 0 | 0.0 | 0.0 | 0.02 | 0.20 | 0.20 | 96 | 1012.4 |
| 20260502113530 | 45 | 0 | 0.0 | 0.0 | 0.02 | 0.20 | 0.20 | 96 | 1012.5 |
| 20260502113045 | 45 | 0 | 0.0 | 0.0 | 0.02 | 0.20 | 0.20 | 96 | 1012.6 |
| 20260502112530 | 45 | 0 | 0.0 | 0.0 | 0.02 | 0.19 | 0.19 | 96 | 1012.9 |
| 20260502112030 | 45 | 0 | 0.0 | 0.0 | 0.02 | 0.18 | 0.18 | 96 | 1012.7 |
| 20260502111541 | 45 | 0 | 0.0 | 0.0 | 0.04 | 0.18 | 0.18 | 96 | 1012.5 |
| 20260502111030 | 45 | 0 | 0.0 | 0.0 | 0.06 | 0.18 | 0.18 | 96 | 1012.5 |
| 20260502110531 | 45 | 0 | 0.0 | 0.0 | 0.08 | 0.18 | 0.18 | 96 | 1012.3 |
| 20260502110044 | 45 | 0 | 0.0 | 0.0 | 0.09 | 0.18 | 0.18 | 96 | 1012.4 |
| 20260502105532 | 45 | 0 | 0.0 | 0.0 | 0.09 | 0.18 | 0.18 | 96 | 1012.3 |
| 20260502105030 | 45 | 0 | 0.0 | 0.0 | 0.09 | 0.18 | 0.18 | 96 | 1012.1 |
| 20260502104543 | 45 | 0 | 0.0 | 0.0 | 0.10 | 0.18 | 0.18 | 96 | 1012.1 |
| 20260502104030 | 45 | 0 | 0.0 | 0.0 | 0.10 | 0.18 | 0.18 | 96 | 1012.0 |
| 20260502103532 | 45 | 0 | 0.0 | 0.0 | 0.10 | 0.18 | 0.18 | 96 | 1011.9 |
| 20260502103038 | 45 | 0 | 0.0 | 0.0 | 0.10 | 0.18 | 0.18 | 96 | 1012.3 |
| 20260502102533 | 45 | 0 | 0.0 | 0.0 | 0.09 | 0.17 | 0.17 | 96 | 1012.2 |
| 20260502102030 | 45 | 0 | 0.0 | 0.0 | 0.09 | 0.16 | 0.16 | 95 | 1012.4 |
| 20260502101557 | 45 | 0 | 0.0 | 0.9 | 0.07 | 0.14 | 0.14 | 95 | 1012.3 |
| 20260502101029 | 45 | 0 | 0.0 | 0.9 | 0.04 | 0.11 | 0.11 | 95 | 1012.3 |
| 20260502100529 | 45 | 0 | 0.0 | 1.7 | 0.03 | 0.10 | 0.10 | 95 | 1012.2 |
| 20260502091028 | 45 | 0 | 0.0 | 0.0 | 0.04 | 0.07 | 0.07 | 95 | 1011.8 |
| 20260502090529 | 45 | 0 | 0.0 | 0.9 | 0.05 | 0.07 | 0.07 | 95 | 1011.9 |
| 20260502071029 | 46 | 0 | 0.0 | 0.9 | 0.02 | 0.02 | 0.02 | 91 | 1011.8 |
| 20260502070531 | 46 | 148 | 0.0 | 0.9 | 0.01 | 0.01 | 0.01 | 90 | 1012.0 |
| 20260502070049 | 46 | 0 | 0.0 | 0.9 | 0.01 | 0.01 | 0.01 | 89 | 1011.8 |
| 20260502065530 | 46 | 349 | 0.0 | 0.9 | 0.01 | 0.01 | 0.01 | 88 | 1011.9 |
| 20260502065029 | 46 | 255 | 0.0 | 0.9 | 0.00 | 0.00 | 0.00 | 87 | 1012.1 |
| 20260502064553 | 46 | 0 | 0.0 | 1.7 | 0.00 | 0.00 | 0.00 | 87 | 1011.9 |
| 20260502064032 | 46 | 0 | 0.0 | 1.7 | 0.00 | 0.00 | 0.00 | 87 | 1011.8 |
| 20260502063529 | 46 | 328 | 0.0 | 0.9 | 0.00 | 0.00 | 0.00 | 88 | 1011.9 |
| 20260502063042 | 46 | 95 | 0.0 | 0.9 | 0.00 | 0.00 | 0.00 | 88 | 1011.7 |
| 20260502062532 | 46 | 112 | 0.0 | 0.9 | 0.00 | 0.00 | 0.00 | 87 | 1011.8 |
| 20260502062032 | 46 | 0 | 0.0 | 0.9 | 0.00 | 0.00 | 0.00 | 87 | 1011.8 |
| 20260502061539 | 46 | 112 | 0.0 | 0.9 | 0.00 | 0.00 | 0.00 | 86 | 1011.8 |
| 20260502061029 | 46 | 0 | 0.0 | 0.0 | 0.00 | 0.00 | 0.00 | 85 | 1011.8 |
| 20260502060529 | 47 | 0 | 0.0 | 0.9 | 0.00 | 0.00 | 0.00 | 84 | 1011.9 |
| 20260502060035 | 47 | 0 | 0.0 | 0.9 | 0.00 | 0.00 | 0.00 | 83 | 1011.9 |
| 20260502055530 | 47 | 0 | 0.0 | 0.9 | 0.00 | 0.00 | 0.00 | 84 | 1011.9 |
| 20260502055030 | 47 | 113 | 0.0 | 0.9 | 0.00 | 0.00 | 0.00 | 82 | 1011.9 |
| 20260502054535 | 47 | 0 | 0.0 | 0.9 | 0.00 | 0.00 | 0.00 | 81 | 1012.0 |
| 20260502054029 | 47 | 0 | 0.0 | 1.7 | 0.00 | 0.00 | 0.00 | 81 | 1011.9 |
| 20260502053529 | 47 | 0 | 0.0 | 1.7 | 0.00 | 0.00 | 0.00 | 80 | 1011.8 |
| 20260502053036 | 47 | 0 | 0.0 | 4.3 | 0.00 | 0.00 | 0.00 | 80 | 1012.0 |
| 20260502052530 | 47 | 0 | 1.7 | 4.3 | 0.00 | 0.00 | 0.00 | 81 | 1011.8 |
| 20260502052030 | 47 | 355 | 0.0 | 0.9 | 0.00 | 0.00 | 0.00 | 84 | 1011.9 |
| 20260502051545 | 48 | 0 | 0.0 | 0.9 | 0.00 | 0.00 | 0.00 | 82 | 1011.9 |
| 20260502051032 | 48 | 53 | 0.0 | 1.7 | 0.00 | 0.00 | 0.00 | 80 | 1012.0 |
| 20260502050535 | 49 | 52 | 0.0 | 1.7 | 0.00 | 0.00 | 0.00 | 76 | 1012.3 |
| 20260502050042 | 49 | 11 | 0.0 | 1.7 | 0.00 | 0.00 | 0.00 | 73 | 1012.4 |
| 20260502045529 | 49 | 241 | 0.0 | 0.9 | 0.00 | 0.00 | 0.00 | 75 | 1012.3 |
| 20260502045030 | 49 | 0 | 0.0 | 0.9 | 0.00 | 0.00 | 0.00 | 74 | 1012.1 |
| 20260502044540 | 49 | 0 | 0.0 | 0.9 | 0.00 | 0.00 | 0.00 | 74 | 1011.9 |
| 20260502044029 | 49 | 0 | 0.0 | 0.9 | 0.00 | 0.00 | 0.00 | 75 | 1011.7 |
| 20260502043529 | 49 | 0 | 0.0 | 0.9 | 0.00 | 0.00 | 0.00 | 75 | 1011.8 |
| 20260502043036 | 49 | 0 | 0.0 | 0.9 | 0.00 | 0.00 | 0.00 | 73 | 1011.6 |
| 20260502042530 | 49 | 240 | 0.0 | 0.9 | 0.00 | 0.00 | 0.00 | 75 | 1011.5 |
| 20260502042029 | 49 | 0 | 0.0 | 0.9 | 0.00 | 0.00 | 0.00 | 72 | 1011.7 |
| 20260502041536 | 49 | 0 | 0.0 | 0.9 | 0.00 | 0.00 | 0.00 | 75 | 1011.8 |
| 20260502041029 | 49 | 0 | 0.0 | 0.9 | 0.00 | 0.00 | 0.00 | 74 | 1011.7 |
| 20260502040529 | 49 | 0 | 0.0 | 0.9 | 0.00 | 0.00 | 0.00 | 73 | 1011.7 |
| 20260502040038 | 49 | 0 | 0.0 | 0.0 | 0.00 | 0.00 | 0.00 | 73 | 1011.6 |
| 20260502035529 | 49 | 0 | 0.0 | 0.0 | 0.00 | 0.00 | 0.00 | 73 | 1011.6 |
| 20260502035029 | 49 | 0 | 0.0 | 0.9 | 0.00 | 0.00 | 0.00 | 70 | 1011.7 |
| 20260502034545 | 49 | 0 | 0.0 | 0.9 | 0.00 | 0.00 | 0.00 | 70 | 1011.7 |
| 20260502034030 | 49 | 0 | 0.0 | 0.9 | 0.00 | 0.00 | 0.00 | 70 | 1011.7 |
| 20260502033529 | 48 | 0 | 0.0 | 0.0 | 0.00 | 0.00 | 0.00 | 68 | 1011.6 |
| 20260502033044 | 48 | 0 | 0.0 | 0.0 | 0.00 | 0.00 | 0.00 | 70 | 1011.7 |
| 20260502032529 | 48 | 0 | 0.0 | 0.0 | 0.00 | 0.00 | 0.00 | 72 | 1011.9 |
| 20260502032029 | 48 | 0 | 0.0 | 0.0 | 0.00 | 0.00 | 0.00 | 72 | 1011.9 |
| 20260502031543 | 48 | 0 | 0.0 | 0.0 | 0.00 | 0.00 | 0.00 | 74 | 1012.0 |
| 20260502031029 | 48 | 0 | 0.0 | 0.9 | 0.00 | 0.00 | 0.00 | 73 | 1011.9 |
| 20260502030529 | 49 | 0 | 0.0 | 0.9 | 0.00 | 0.00 | 0.00 | 72 | 1012.0 |
| 20260502030041 | 49 | 0 | 0.0 | 0.9 | 0.00 | 0.00 | 0.00 | 70 | 1012.0 |
| 20260502025528 | 48 | 0 | 0.0 | 0.0 | 0.00 | 0.00 | 0.00 | 67 | 1011.8 |
| 20260502025029 | 48 | 0 | 0.0 | 0.0 | 0.00 | 0.00 | 0.00 | 68 | 1011.8 |
| 20260502024541 | 48 | 0 | 0.0 | 0.0 | 0.00 | 0.00 | 0.00 | 69 | 1011.6 |
| 20260502024030 | 48 | 0 | 0.0 | 0.0 | 0.00 | 0.00 | 0.00 | 68 | 1011.7 |
| 20260502023529 | 48 | 0 | 0.0 | 0.0 | 0.00 | 0.00 | 0.00 | 70 | 1011.7 |
| 20260502023040 | 48 | 0 | 0.0 | 0.0 | 0.00 | 0.00 | 0.00 | 67 | 1011.7 |
| 20260502022528 | 48 | 0 | 0.0 | 0.0 | 0.00 | 0.00 | 0.00 | 72 | 1011.8 |
| 20260502022028 | 48 | 0 | 0.0 | 0.0 | 0.00 | 0.00 | 0.00 | 68 | 1011.8 |
| 20260502021540 | 48 | 0 | 0.0 | 0.0 | 0.00 | 0.00 | 0.00 | 68 | 1011.7 |
| 20260502021026 | 48 | 0 | 0.0 | 0.0 | 0.00 | 0.00 | 0.00 | 68 | 1011.8 |
| 20260502020529 | 48 | 0 | 0.0 | 0.0 | 0.00 | 0.00 | 0.00 | 66 | 1011.9 |
| 20260502020035 | 48 | 0 | 0.0 | 0.0 | 0.00 | 0.00 | 0.00 | 66 | 1011.8 |
| 20260502015530 | 48 | 0 | 0.0 | 0.0 | 0.00 | 0.00 | 0.00 | 66 | 1011.8 |
| 20260502015029 | 48 | 0 | 0.0 | 0.0 | 0.00 | 0.00 | 0.00 | 66 | 1011.9 |
| 20260502014545 | 49 | 0 | 0.0 | 0.0 | 0.00 | 0.00 | 0.00 | 66 | 1011.9 |
| 20260502014029 | 49 | 0 | 0.0 | 0.0 | 0.00 | 0.00 | 0.00 | 65 | 1011.8 |
| 20260502013527 | 49 | 0 | 0.0 | 0.0 | 0.00 | 0.00 | 0.00 | 65 | 1011.7 |
| 20260502013041 | 49 | 0 | 0.0 | 0.0 | 0.00 | 0.00 | 0.00 | 61 | 1011.7 |
| 20260502012526 | 50 | 0 | 0.0 | 0.0 | 0.00 | 0.00 | 0.00 | 62 | 1011.6 |
| 20260502012027 | 49 | 262 | 0.0 | 0.0 | 0.00 | 0.00 | 0.00 | 64 | 1011.7 |
| 20260502011541 | 49 | 0 | 0.0 | 0.0 | 0.00 | 0.00 | 0.00 | 62 | 1011.6 |
| 20260502011030 | 50 | 0 | 0.0 | 0.0 | 0.00 | 0.00 | 0.00 | 63 | 1011.5 |
| 20260502010529 | 50 | 0 | 0.0 | 0.0 | 0.00 | 0.00 | 0.00 | 64 | 1011.4 |
| 20260502010041 | 49 | 0 | 0.0 | 0.0 | 0.00 | 0.00 | 0.00 | 65 | 1011.4 |
| 20260502005526 | 49 | 0 | 0.0 | 0.0 | 0.00 | 0.00 | 0.00 | 65 | 1011.3 |
| 20260502005026 | 49 | 0 | 0.0 | 0.0 | 0.00 | 0.00 | 0.00 | 64 | 1011.3 |
| 20260502004538 | 49 | 0 | 0.0 | 0.0 | 0.00 | 0.00 | 0.00 | 64 | 1011.2 |
| 20260502004026 | 50 | 0 | 0.0 | 0.0 | 0.00 | 0.00 | 0.00 | 63 | 1011.1 |
| 20260502003525 | 50 | 0 | 0.0 | 0.0 | 0.00 | 0.00 | 0.00 | 61 | 1011.1 |
| 20260502003046 | 51 | 0 | 0.0 | 0.0 | 0.00 | 0.00 | 0.00 | 60 | 1010.9 |
| 20260502002532 | 51 | 0 | 0.0 | 0.0 | 0.00 | 0.00 | 0.00 | 60 | 1011.0 |
| 20260502002026 | 52 | 0 | 0.0 | 0.0 | 0.00 | 0.00 | 0.00 | 59 | 1011.0 |
| 20260502001545 | 52 | 0 | 0.0 | 0.0 | 0.00 | 0.00 | 0.00 | 57 | 1011.0 |
| 20260502001029 | 52 | 0 | 0.0 | 0.0 | 0.00 | 0.00 | 0.00 | 57 | 1010.8 |
| 20260502000529 | 52 | 0 | 0.0 | 0.0 | 0.00 | 0.00 | 0.00 | 54 | 1010.7 |
| 20260502000041 | 53 | 0 | 0.0 | 0.0 | 0.00 | 0.00 | 0.00 | 54 | 1010.7 |
| 20260501235529 | 54 | 0 | 0.0 | 0.0 | 0.00 | 0.00 | 0.00 | 53 | 1010.6 |
| 20260501235029 | 55 | 0 | 0.0 | 0.0 | 0.00 | 0.00 | 0.00 | 51 | 1010.5 |
| 20260501234545 | 56 | 0 | 0.0 | 0.0 | 0.00 | 0.00 | 0.00 | 49 | 1010.4 |
| 20260501234032 | 57 | 0 | 0.0 | 1.7 | 0.00 | 0.00 | 0.00 | 47 | 1010.4 |
| 20260501233530 | 58 | 0 | 0.0 | 1.7 | 0.00 | 0.00 | 0.00 | 44 | 1010.2 |
| 20260501233041 | 58 | 269 | 0.0 | 1.7 | 0.00 | 0.00 | 0.00 | 42 | 1010.1 |
| 20260501232528 | 59 | 36 | 0.0 | 3.5 | 0.00 | 0.00 | 0.00 | 42 | 1010.2 |
| 20260501232031 | 59 | 294 | 0.0 | 6.1 | 0.00 | 0.00 | 0.00 | 40 | 1010.2 |
| 20260501231536 | 59 | 339 | 0.0 | 6.1 | 0.00 | 0.00 | 0.00 | 41 | 1010.1 |
| 20260501231029 | 60 | 328 | 0.9 | 4.3 | 0.00 | 0.00 | 0.00 | 41 | 1010.1 |
| 20260501230528 | 60 | 275 | 0.9 | 4.3 | 0.00 | 0.00 | 0.00 | 38 | 1010.0 |
| 20260501230038 | 60 | 0 | 0.9 | 3.5 | 0.00 | 0.00 | 0.00 | 38 | 1010.0 |
| 20260501225525 | 60 | 0 | 0.9 | 3.5 | 0.00 | 0.00 | 0.00 | 39 | 1009.9 |
| 20260501225025 | 61 | 262 | 1.7 | 3.5 | 0.00 | 0.00 | 0.00 | 40 | 1010.0 |
| 20260501224542 | 62 | 0 | 0.0 | 4.3 | 0.00 | 0.00 | 0.00 | 37 | 1009.9 |
| 20260501224029 | 63 | 0 | 0.0 | 4.3 | 0.00 | 0.00 | 0.00 | 36 | 1009.7 |
| 20260501223529 | 62 | 303 | 0.0 | 3.5 | 0.00 | 0.00 | 0.00 | 37 | 1009.6 |
| 20260501223041 | 62 | 273 | 0.9 | 3.5 | 0.00 | 0.00 | 0.00 | 38 | 1009.8 |
| 20260501222530 | 61 | 308 | 1.7 | 4.3 | 0.00 | 0.00 | 0.00 | 36 | 1009.7 |
| 20260501222029 | 62 | 313 | 1.7 | 5.2 | 0.00 | 0.00 | 0.00 | 37 | 1009.6 |
| 20260501221542 | 62 | 324 | 1.7 | 5.2 | 0.00 | 0.00 | 0.00 | 37 | 1009.8 |
| 20260501221029 | 62 | 356 | 1.7 | 7.0 | 0.00 | 0.00 | 0.00 | 35 | 1009.8 |
| 20260501220529 | 62 | 275 | 1.7 | 7.0 | 0.00 | 0.00 | 0.00 | 35 | 1009.8 |
| 20260501220046 | 62 | 252 | 2.6 | 12.2 | 0.00 | 0.00 | 0.00 | 36 | 1009.8 |
| 20260501215529 | 62 | 295 | 2.6 | 12.2 | 0.00 | 0.00 | 0.00 | 35 | 1009.8 |
| 20260501215028 | 62 | 302 | 1.7 | 7.0 | 0.00 | 0.00 | 0.00 | 35 | 1009.7 |
| 20260501214550 | 62 | 306 | 2.6 | 7.0 | 0.00 | 0.00 | 0.00 | 37 | 1009.9 |
| 20260501214121 | 62 | 338 | 2.6 | 7.0 | 0.00 | 0.00 | 0.00 | 35 | 1009.7 |
| 20260501213529 | 63 | 293 | 3.5 | 9.6 | 0.00 | 0.00 | 0.00 | 35 | 1009.8 |
| 20260501213042 | 63 | 276 | 0.9 | 9.6 | 0.00 | 0.00 | 0.00 | 35 | 1009.8 |
| 20260501212529 | 63 | 297 | 3.5 | 9.6 | 0.00 | 0.00 | 0.00 | 37 | 1009.8 |
| 20260501212029 | 63 | 246 | 2.6 | 7.0 | 0.00 | 0.00 | 0.00 | 34 | 1009.8 |
| 20260501211543 | 63 | 286 | 2.6 | 7.8 | 0.00 | 0.00 | 0.00 | 36 | 1009.9 |
| 20260501211026 | 62 | 20 | 2.6 | 7.8 | 0.00 | 0.00 | 0.00 | 36 | 1009.7 |
| 20260501210529 | 62 | 18 | 2.6 | 7.8 | 0.00 | 0.00 | 0.00 | 34 | 1009.8 |
| 20260501210045 | 63 | 6 | 0.9 | 7.8 | 0.00 | 0.00 | 0.00 | 37 | 1009.8 |
| 20260501205529 | 62 | 300 | 2.6 | 14.8 | 0.00 | 0.00 | 0.00 | 34 | 1009.8 |
| 20260501205029 | 62 | 276 | 4.3 | 14.8 | 0.00 | 0.00 | 0.00 | 37 | 1009.7 |
| 20260501204615 | 62 | 299 | 3.5 | 7.8 | 0.00 | 0.00 | 0.00 | 36 | 1009.6 |
| 20260501204029 | 62 | 278 | 1.7 | 11.3 | 0.00 | 0.00 | 0.00 | 36 | 1009.5 |
| 20260501203529 | 62 | 5 | 5.2 | 12.2 | 0.00 | 0.00 | 0.00 | 39 | 1009.5 |
| 20260501203038 | 62 | 302 | 4.3 | 12.2 | 0.00 | 0.00 | 0.00 | 34 | 1009.4 |
| 20260501202527 | 62 | 341 | 5.2 | 12.2 | 0.00 | 0.00 | 0.00 | 32 | 1009.6 |
| 20260501202026 | 62 | 325 | 2.6 | 10.4 | 0.00 | 0.00 | 0.00 | 34 | 1009.6 |
| 20260501201546 | 62 | 318 | 4.3 | 10.4 | 0.00 | 0.00 | 0.00 | 34 | 1009.7 |
| 20260501201026 | 63 | 267 | 1.7 | 9.6 | 0.00 | 0.00 | 0.00 | 34 | 1009.6 |
| 20260501200529 | 62 | 240 | 2.6 | 9.6 | 0.00 | 0.00 | 0.00 | 39 | 1009.6 |
| 20260501200042 | 62 | 14 | 2.6 | 12.2 | 0.00 | 0.00 | 0.00 | 35 | 1009.6 |
| 20260501195529 | 62 | 232 | 4.3 | 12.2 | 0.00 | 0.00 | 0.00 | 34 | 1009.6 |